contact:dominique.lefevre@mio.osupytheas.fr, maurice.libes@osupytheas.fr, didier.mallarino@osupytheas.fr
Project:EMSO http://www.emso-fr.org/EMSO-France
Depth: 2436.0 m
Title:EMSO Ligure Ouest : Data MII capteur MICROCAT
DateTime_Computer,Latitude,Longitude,Temperature,Conductivity,Pressure,DateTime_Instrument
DateTime_Computer,Latitude,Longitude,degC,S m-1,dbar,DateTime_Instrument
2019-12-08T00:02:01Z,42.805,6.029,13.2958,4.59956,2469.947,2019-12-08T02:02:31Z
2019-12-08T00:05:04Z,42.805,6.029,13.2959,4.59956,2469.9,2019-12-08T02:05:34Z
2019-12-08T00:08:08Z,42.805,6.029,13.2955,4.59957,2469.914,2019-12-08T02:08:37Z
2019-12-08T00:11:11Z,42.805,6.029,13.2957,4.59956,2469.914,2019-12-08T02:11:40Z
2019-12-08T00:14:14Z,42.805,6.029,13.2954,4.59956,2469.947,2019-12-08T02:14:44Z
2019-12-08T00:17:17Z,42.805,6.029,13.2958,4.59956,2469.9,2019-12-08T02:17:47Z
2019-12-08T00:20:20Z,42.805,6.029,13.2959,4.59956,2469.923,2019-12-08T02:20:50Z
2019-12-08T00:23:24Z,42.805,6.029,13.2957,4.59956,2469.9,2019-12-08T02:23:53Z
2019-12-08T00:26:27Z,42.805,6.029,13.2957,4.59966,2469.914,2019-12-08T02:26:56Z
2019-12-08T00:29:30Z,42.805,6.029,13.2964,4.59961,2469.914,2019-12-08T02:29:59Z
2019-12-08T00:32:33Z,42.805,6.029,13.2958,4.59965,2469.863,2019-12-08T02:33:03Z
2019-12-08T00:35:36Z,42.805,6.029,13.2959,4.59961,2469.914,2019-12-08T02:36:06Z
2019-12-08T00:38:39Z,42.805,6.029,13.2960,4.59956,2469.937,2019-12-08T02:39:09Z
2019-12-08T00:41:43Z,42.805,6.029,13.2958,4.59956,2469.923,2019-12-08T02:42:12Z
2019-12-08T00:44:46Z,42.805,6.029,13.2960,4.59956,2469.923,2019-12-08T02:45:15Z
2019-12-08T00:47:49Z,42.805,6.029,13.2959,4.59956,2469.923,2019-12-08T02:48:19Z
2019-12-08T00:50:52Z,42.805,6.029,13.2958,4.59961,2469.937,2019-12-08T02:51:22Z
2019-12-08T00:53:55Z,42.805,6.029,13.2959,4.59959,2469.923,2019-12-08T02:54:25Z
2019-12-08T00:56:59Z,42.805,6.029,13.2958,4.59958,2469.947,2019-12-08T02:57:28Z
2019-12-08T01:00:02Z,42.805,6.029,13.2961,4.59957,2469.923,2019-12-08T03:00:32Z
2019-12-08T01:03:05Z,42.805,6.029,13.2960,4.59957,2469.96,2019-12-08T03:03:35Z
2019-12-08T01:06:08Z,42.805,6.029,13.2959,4.59964,2469.9,2019-12-08T03:06:38Z
2019-12-08T01:09:12Z,42.805,6.029,13.2959,4.59966,2469.923,2019-12-08T03:09:41Z
2019-12-08T01:12:15Z,42.805,6.029,13.2958,4.59964,2469.914,2019-12-08T03:12:44Z
2019-12-08T01:15:18Z,42.805,6.029,13.2957,4.59961,2469.923,2019-12-08T03:15:48Z
2019-12-08T01:18:21Z,42.805,6.029,13.2957,4.59964,2469.937,2019-12-08T03:18:51Z
2019-12-08T01:21:24Z,42.805,6.029,13.2956,4.59965,2469.937,2019-12-08T03:21:54Z
2019-12-08T01:24:28Z,42.805,6.029,13.2958,4.59960,2469.914,2019-12-08T03:24:57Z
2019-12-08T01:27:31Z,42.805,6.029,13.2956,4.59958,2469.947,2019-12-08T03:28:00Z
2019-12-08T01:30:34Z,42.805,6.029,13.2958,4.59961,2469.947,2019-12-08T03:31:03Z
2019-12-08T01:33:37Z,42.805,6.029,13.2956,4.59962,2469.947,2019-12-08T03:34:07Z
2019-12-08T01:36:40Z,42.805,6.029,13.2957,4.59961,2469.923,2019-12-08T03:37:10Z
2019-12-08T01:39:43Z,42.805,6.029,13.2957,4.59961,2469.923,2019-12-08T03:40:13Z
2019-12-08T01:42:47Z,42.805,6.029,13.2961,4.59963,2469.914,2019-12-08T03:43:16Z
2019-12-08T01:45:50Z,42.805,6.029,13.2957,4.59958,2469.909,2019-12-08T03:46:19Z
2019-12-08T01:48:53Z,42.805,6.029,13.2954,4.59958,2469.947,2019-12-08T03:49:23Z
2019-12-08T01:51:56Z,42.805,6.029,13.2959,4.59966,2469.947,2019-12-08T03:52:26Z
2019-12-08T01:54:59Z,42.805,6.029,13.2957,4.59958,2469.947,2019-12-08T03:55:29Z
2019-12-08T01:58:03Z,42.805,6.029,13.2956,4.59958,2469.96,2019-12-08T03:58:32Z
2019-12-08T02:01:06Z,42.805,6.029,13.2960,4.59958,2469.923,2019-12-08T04:01:35Z
2019-12-08T02:04:09Z,42.805,6.029,13.2957,4.59961,2469.923,2019-12-08T04:04:39Z
2019-12-08T02:07:12Z,42.805,6.029,13.2962,4.59967,2469.947,2019-12-08T04:07:42Z
2019-12-08T02:10:15Z,42.805,6.029,13.2954,4.59964,2469.974,2019-12-08T04:10:45Z
2019-12-08T02:13:19Z,42.805,6.029,13.2959,4.59964,2469.947,2019-12-08T04:13:48Z
2019-12-08T02:16:22Z,42.805,6.029,13.2959,4.59966,2469.947,2019-12-08T04:16:51Z
2019-12-08T02:19:25Z,42.805,6.029,13.2957,4.59960,2469.947,2019-12-08T04:19:54Z
2019-12-08T02:22:28Z,42.805,6.029,13.2957,4.59960,2469.97,2019-12-08T04:22:58Z
2019-12-08T02:25:31Z,42.805,6.029,13.2960,4.59960,2469.97,2019-12-08T04:26:01Z
2019-12-08T02:28:34Z,42.805,6.029,13.2959,4.59958,2469.97,2019-12-08T04:29:04Z
2019-12-08T02:31:38Z,42.805,6.029,13.2955,4.59958,2469.96,2019-12-08T04:32:08Z
2019-12-08T02:34:41Z,42.805,6.029,13.2961,4.59961,2470.007,2019-12-08T04:35:11Z
2019-12-08T02:37:45Z,42.805,6.029,13.2959,4.59964,2469.947,2019-12-08T04:38:14Z
2019-12-08T02:40:48Z,42.805,6.029,13.2959,4.59960,2469.97,2019-12-08T04:41:17Z
2019-12-08T02:43:51Z,42.805,6.029,13.2957,4.59957,2469.984,2019-12-08T04:44:20Z
2019-12-08T02:46:54Z,42.805,6.029,13.2955,4.59960,2469.97,2019-12-08T04:47:24Z
2019-12-08T02:49:57Z,42.805,6.029,13.2959,4.59957,2469.97,2019-12-08T04:50:27Z
2019-12-08T02:53:00Z,42.805,6.029,13.2961,4.59958,2469.97,2019-12-08T04:53:30Z
2019-12-08T02:56:04Z,42.805,6.029,13.2960,4.59962,2469.993,2019-12-08T04:56:33Z
2019-12-08T02:59:07Z,42.805,6.029,13.2956,4.59961,2469.984,2019-12-08T04:59:37Z
2019-12-08T03:02:10Z,42.805,6.029,13.2961,4.59958,2469.993,2019-12-08T05:02:40Z
2019-12-08T03:05:14Z,42.805,6.029,13.2964,4.59958,2470.017,2019-12-08T05:05:43Z
2019-12-08T03:08:17Z,42.805,6.029,13.2958,4.59961,2469.993,2019-12-08T05:08:46Z
2019-12-08T03:11:20Z,42.805,6.029,13.2962,4.59959,2470.007,2019-12-08T05:11:50Z
2019-12-08T03:14:23Z,42.805,6.029,13.2960,4.59958,2469.96,2019-12-08T05:14:53Z
2019-12-08T03:17:26Z,42.805,6.029,13.2958,4.59958,2469.993,2019-12-08T05:17:56Z
2019-12-08T03:20:30Z,42.805,6.029,13.2961,4.59958,2470.017,2019-12-08T05:20:59Z
2019-12-08T03:23:33Z,42.805,6.029,13.2958,4.59958,2469.993,2019-12-08T05:24:02Z
2019-12-08T03:26:36Z,42.805,6.029,13.2957,4.59957,2469.984,2019-12-08T05:27:05Z
2019-12-08T03:29:39Z,42.805,6.029,13.2959,4.59958,2470.03,2019-12-08T05:30:09Z
2019-12-08T03:32:42Z,42.805,6.029,13.2957,4.59958,2469.993,2019-12-08T05:33:12Z
2019-12-08T03:35:45Z,42.805,6.029,13.2959,4.59958,2469.993,2019-12-08T05:36:15Z
2019-12-08T03:38:49Z,42.805,6.029,13.2958,4.59966,2469.97,2019-12-08T05:39:18Z
2019-12-08T03:41:52Z,42.805,6.029,13.2957,4.59961,2469.993,2019-12-08T05:42:21Z
2019-12-08T03:44:55Z,42.805,6.029,13.2959,4.59957,2469.97,2019-12-08T05:45:25Z
2019-12-08T03:47:58Z,42.805,6.029,13.2964,4.59958,2469.984,2019-12-08T05:48:28Z
2019-12-08T03:51:01Z,42.805,6.029,13.2957,4.59958,2469.984,2019-12-08T05:51:31Z
2019-12-08T03:54:05Z,42.805,6.029,13.2956,4.59962,2469.993,2019-12-08T05:54:34Z
2019-12-08T03:57:08Z,42.805,6.029,13.2961,4.59958,2470.017,2019-12-08T05:57:37Z
2019-12-08T04:00:11Z,42.805,6.029,13.2959,4.59963,2470.017,2019-12-08T06:00:40Z
2019-12-08T04:03:14Z,42.805,6.029,13.2957,4.59966,2470.017,2019-12-08T06:03:44Z
2019-12-08T04:06:17Z,42.805,6.029,13.2960,4.59959,2470.017,2019-12-08T06:06:47Z
2019-12-08T04:09:20Z,42.805,6.029,13.2959,4.59961,2470.007,2019-12-08T06:09:50Z
2019-12-08T04:12:24Z,42.805,6.029,13.2958,4.59958,2470.03,2019-12-08T06:12:53Z
2019-12-08T04:15:27Z,42.805,6.029,13.2959,4.59958,2470.017,2019-12-08T06:15:56Z
2019-12-08T04:18:30Z,42.805,6.029,13.2960,4.59965,2470.007,2019-12-08T06:19:00Z
2019-12-08T04:21:33Z,42.805,6.029,13.2959,4.59961,2470.007,2019-12-08T06:22:03Z
2019-12-08T04:24:36Z,42.805,6.029,13.2958,4.59960,2469.993,2019-12-08T06:25:06Z
2019-12-08T04:27:40Z,42.805,6.029,13.2957,4.59958,2469.993,2019-12-08T06:28:09Z
2019-12-08T04:30:43Z,42.805,6.029,13.2957,4.59971,2470.03,2019-12-08T06:31:12Z
2019-12-08T04:33:46Z,42.805,6.029,13.2958,4.59958,2470.017,2019-12-08T06:34:15Z
2019-12-08T04:36:49Z,42.805,6.029,13.2958,4.59958,2470.03,2019-12-08T06:37:19Z
2019-12-08T04:39:52Z,42.805,6.029,13.2960,4.59960,2470.007,2019-12-08T06:40:22Z
2019-12-08T04:42:56Z,42.805,6.029,13.2959,4.59958,2469.993,2019-12-08T06:43:25Z
2019-12-08T04:45:59Z,42.805,6.029,13.2961,4.59956,2470.017,2019-12-08T06:46:28Z
2019-12-08T04:49:02Z,42.805,6.029,13.2958,4.59958,2469.993,2019-12-08T06:49:31Z
2019-12-08T04:52:05Z,42.805,6.029,13.2958,4.59966,2470.017,2019-12-08T06:52:35Z
2019-12-08T04:55:08Z,42.805,6.029,13.2958,4.59958,2469.993,2019-12-08T06:55:38Z
2019-12-08T04:58:12Z,42.805,6.029,13.2956,4.59958,2469.993,2019-12-08T06:58:41Z
2019-12-08T05:01:15Z,42.805,6.029,13.2958,4.59956,2469.993,2019-12-08T07:01:44Z
2019-12-08T05:04:18Z,42.805,6.029,13.2958,4.59957,2470.017,2019-12-08T07:04:47Z
2019-12-08T05:07:21Z,42.805,6.029,13.2958,4.59958,2470.017,2019-12-08T07:07:51Z
2019-12-08T05:10:24Z,42.805,6.029,13.2957,4.59958,2469.97,2019-12-08T07:10:54Z
2019-12-08T05:13:27Z,42.805,6.029,13.2961,4.59958,2470.007,2019-12-08T07:13:57Z
2019-12-08T05:16:31Z,42.805,6.029,13.2958,4.59961,2469.993,2019-12-08T07:17:00Z
2019-12-08T05:19:34Z,42.805,6.029,13.2958,4.59963,2470.04,2019-12-08T07:20:03Z
2019-12-08T05:22:37Z,42.805,6.029,13.2957,4.59960,2470.003,2019-12-08T07:23:07Z
2019-12-08T05:25:40Z,42.805,6.029,13.2956,4.59960,2470.03,2019-12-08T07:26:10Z
2019-12-08T05:28:43Z,42.805,6.029,13.2957,4.59958,2470.017,2019-12-08T07:29:13Z
2019-12-08T05:31:47Z,42.805,6.029,13.2957,4.59966,2470.017,2019-12-08T07:32:16Z
2019-12-08T05:34:50Z,42.805,6.029,13.2960,4.59958,2469.993,2019-12-08T07:35:19Z
2019-12-08T05:37:53Z,42.805,6.029,13.2955,4.59963,2469.993,2019-12-08T07:38:22Z
2019-12-08T05:40:56Z,42.805,6.029,13.2961,4.59958,2470.017,2019-12-08T07:41:26Z
2019-12-08T05:43:59Z,42.805,6.029,13.2963,4.59972,2469.993,2019-12-08T07:44:29Z
2019-12-08T05:47:02Z,42.805,6.029,13.2957,4.59976,2470.03,2019-12-08T07:47:32Z
2019-12-08T05:50:06Z,42.805,6.029,13.2960,4.59964,2469.97,2019-12-08T07:50:35Z
2019-12-08T05:53:09Z,42.805,6.029,13.2958,4.59968,2469.993,2019-12-08T07:53:38Z
2019-12-08T05:56:12Z,42.805,6.029,13.2958,4.59968,2470.03,2019-12-08T07:56:42Z
2019-12-08T05:59:15Z,42.805,6.029,13.2957,4.59971,2469.979,2019-12-08T07:59:45Z
2019-12-08T06:02:18Z,42.805,6.029,13.2956,4.59963,2470.03,2019-12-08T08:02:48Z
2019-12-08T06:05:22Z,42.805,6.029,13.2957,4.59964,2469.993,2019-12-08T08:05:51Z
2019-12-08T06:08:25Z,42.805,6.029,13.2957,4.59968,2469.993,2019-12-08T08:08:54Z
2019-12-08T06:11:28Z,42.805,6.029,13.2957,4.59961,2469.984,2019-12-08T08:11:57Z
2019-12-08T06:14:31Z,42.805,6.029,13.2957,4.59961,2469.993,2019-12-08T08:15:01Z
2019-12-08T06:17:34Z,42.805,6.029,13.2957,4.59958,2469.993,2019-12-08T08:18:04Z
2019-12-08T06:20:37Z,42.805,6.029,13.2961,4.59968,2469.97,2019-12-08T08:21:07Z
2019-12-08T06:23:41Z,42.805,6.029,13.2960,4.59961,2470.017,2019-12-08T08:24:10Z
2019-12-08T06:26:44Z,42.805,6.029,13.2958,4.59963,2470.017,2019-12-08T08:27:13Z
2019-12-08T06:29:47Z,42.805,6.029,13.2958,4.59964,2470.007,2019-12-08T08:30:17Z
2019-12-08T06:32:50Z,42.805,6.029,13.2959,4.59960,2469.993,2019-12-08T08:33:20Z
2019-12-08T06:35:54Z,42.805,6.029,13.2957,4.59964,2470.017,2019-12-08T08:36:23Z
2019-12-08T06:38:57Z,42.805,6.029,13.2961,4.59962,2469.984,2019-12-08T08:39:26Z
2019-12-08T06:42:00Z,42.805,6.029,13.2961,4.59962,2470.007,2019-12-08T08:42:30Z
2019-12-08T06:45:03Z,42.805,6.029,13.2957,4.59964,2469.993,2019-12-08T08:45:33Z
2019-12-08T06:48:06Z,42.805,6.029,13.2960,4.59960,2469.97,2019-12-08T08:48:36Z
2019-12-08T06:51:10Z,42.805,6.029,13.2961,4.59962,2469.97,2019-12-08T08:51:39Z
2019-12-08T06:54:13Z,42.805,6.029,13.2959,4.59961,2469.993,2019-12-08T08:54:42Z
2019-12-08T06:57:16Z,42.805,6.029,13.2961,4.59961,2469.97,2019-12-08T08:57:46Z
2019-12-08T07:00:19Z,42.805,6.029,13.2957,4.59961,2469.993,2019-12-08T09:00:49Z
2019-12-08T07:03:22Z,42.805,6.029,13.2959,4.59961,2470.007,2019-12-08T09:03:52Z
2019-12-08T07:06:26Z,42.805,6.029,13.2963,4.59960,2469.97,2019-12-08T09:06:55Z
2019-12-08T07:09:29Z,42.805,6.029,13.2957,4.59959,2469.97,2019-12-08T09:09:58Z
2019-12-08T07:12:32Z,42.805,6.029,13.2960,4.59962,2469.993,2019-12-08T09:13:02Z
2019-12-08T07:15:35Z,42.805,6.029,13.2957,4.59960,2469.993,2019-12-08T09:16:05Z
2019-12-08T07:18:38Z,42.805,6.029,13.2958,4.59960,2469.984,2019-12-08T09:19:08Z
2019-12-08T07:21:42Z,42.805,6.029,13.2960,4.59961,2469.984,2019-12-08T09:22:11Z
2019-12-08T07:24:45Z,42.805,6.029,13.2959,4.59961,2470.007,2019-12-08T09:25:14Z
2019-12-08T07:27:48Z,42.805,6.029,13.2958,4.59960,2469.993,2019-12-08T09:28:17Z
2019-12-08T07:30:51Z,42.805,6.029,13.2958,4.59961,2469.97,2019-12-08T09:31:21Z
2019-12-08T07:33:54Z,42.805,6.029,13.2961,4.59963,2469.993,2019-12-08T09:34:24Z
2019-12-08T07:36:57Z,42.805,6.029,13.2957,4.59964,2469.97,2019-12-08T09:37:27Z
2019-12-08T07:40:01Z,42.805,6.029,13.2956,4.59961,2469.993,2019-12-08T09:40:31Z
2019-12-08T07:43:04Z,42.805,6.029,13.2958,4.59961,2469.97,2019-12-08T09:43:34Z
2019-12-08T07:46:08Z,42.805,6.029,13.2955,4.59961,2469.993,2019-12-08T09:46:37Z
2019-12-08T07:49:11Z,42.805,6.029,13.2961,4.59959,2469.97,2019-12-08T09:49:40Z
2019-12-08T07:52:14Z,42.805,6.029,13.2957,4.59961,2470.007,2019-12-08T09:52:43Z
2019-12-08T07:55:17Z,42.805,6.029,13.2955,4.59960,2470.017,2019-12-08T09:55:47Z
2019-12-08T07:58:20Z,42.805,6.029,13.2959,4.59961,2469.984,2019-12-08T09:58:50Z
2019-12-08T08:01:24Z,42.805,6.029,13.2958,4.59962,2469.97,2019-12-08T10:01:53Z
2019-12-08T08:04:27Z,42.805,6.029,13.2961,4.59958,2469.947,2019-12-08T10:04:56Z
2019-12-08T08:07:30Z,42.805,6.029,13.2958,4.59958,2469.96,2019-12-08T10:08:00Z
2019-12-08T08:10:33Z,42.805,6.029,13.2959,4.59961,2469.993,2019-12-08T10:11:03Z
2019-12-08T08:13:36Z,42.805,6.029,13.2958,4.59960,2469.97,2019-12-08T10:14:06Z
2019-12-08T08:16:40Z,42.805,6.029,13.2960,4.59961,2469.97,2019-12-08T10:17:09Z
2019-12-08T08:19:43Z,42.805,6.029,13.2958,4.59958,2469.984,2019-12-08T10:20:12Z
2019-12-08T08:22:46Z,42.805,6.029,13.2958,4.59963,2469.97,2019-12-08T10:23:15Z
2019-12-08T08:25:49Z,42.805,6.029,13.2958,4.59961,2469.984,2019-12-08T10:26:19Z
2019-12-08T08:28:52Z,42.805,6.029,13.2958,4.59960,2469.937,2019-12-08T10:29:22Z
2019-12-08T08:31:56Z,42.805,6.029,13.2958,4.59960,2469.97,2019-12-08T10:32:25Z
2019-12-08T08:34:59Z,42.805,6.029,13.2960,4.59959,2469.947,2019-12-08T10:35:28Z
2019-12-08T08:38:02Z,42.805,6.029,13.2963,4.59961,2469.947,2019-12-08T10:38:31Z
2019-12-08T08:41:05Z,42.805,6.029,13.2956,4.59961,2469.97,2019-12-08T10:41:35Z
2019-12-08T08:44:08Z,42.805,6.029,13.2958,4.59962,2469.97,2019-12-08T10:44:38Z
2019-12-08T08:47:11Z,42.805,6.029,13.2957,4.59960,2469.97,2019-12-08T10:47:41Z
2019-12-08T08:50:15Z,42.805,6.029,13.2960,4.59962,2469.947,2019-12-08T10:50:44Z
2019-12-08T08:53:18Z,42.805,6.029,13.2957,4.59962,2469.96,2019-12-08T10:53:47Z
2019-12-08T08:56:21Z,42.805,6.029,13.2958,4.59960,2469.909,2019-12-08T10:56:51Z
2019-12-08T08:59:24Z,42.805,6.029,13.2957,4.59961,2469.97,2019-12-08T10:59:54Z
2019-12-08T09:02:28Z,42.805,6.029,13.2960,4.59958,2469.97,2019-12-08T11:02:57Z
2019-12-08T09:05:31Z,42.805,6.029,13.2958,4.59958,2469.96,2019-12-08T11:06:00Z
2019-12-08T09:08:34Z,42.805,6.029,13.2958,4.59957,2469.97,2019-12-08T11:09:03Z
2019-12-08T09:11:37Z,42.805,6.029,13.2961,4.59958,2469.97,2019-12-08T11:12:07Z
2019-12-08T09:14:40Z,42.805,6.029,13.2957,4.59958,2469.984,2019-12-08T11:15:10Z
2019-12-08T09:17:43Z,42.805,6.029,13.2960,4.59957,2469.947,2019-12-08T11:18:13Z
2019-12-08T09:20:47Z,42.805,6.029,13.2962,4.59960,2469.923,2019-12-08T11:21:16Z
2019-12-08T09:23:50Z,42.805,6.029,13.2957,4.59958,2469.984,2019-12-08T11:24:19Z
2019-12-08T09:26:53Z,42.805,6.029,13.2961,4.59957,2469.947,2019-12-08T11:27:22Z
2019-12-08T09:29:56Z,42.805,6.029,13.2957,4.59960,2469.947,2019-12-08T11:30:26Z
2019-12-08T09:32:59Z,42.805,6.029,13.2957,4.59958,2469.96,2019-12-08T11:33:29Z
2019-12-08T09:36:03Z,42.805,6.029,13.2958,4.59957,2469.993,2019-12-08T11:36:32Z
2019-12-08T09:39:06Z,42.805,6.029,13.2958,4.59958,2469.96,2019-12-08T11:39:35Z
2019-12-08T09:42:09Z,42.805,6.029,13.2958,4.59960,2469.923,2019-12-08T11:42:38Z
2019-12-08T09:45:12Z,42.805,6.029,13.2958,4.59958,2469.947,2019-12-08T11:45:42Z
2019-12-08T09:48:15Z,42.805,6.029,13.2959,4.59958,2469.923,2019-12-08T11:48:45Z
2019-12-08T09:51:19Z,42.805,6.029,13.2953,4.59957,2469.96,2019-12-08T11:51:48Z
2019-12-08T09:54:22Z,42.805,6.029,13.2959,4.59960,2469.947,2019-12-08T11:54:51Z
2019-12-08T09:57:25Z,42.805,6.029,13.2957,4.59958,2469.947,2019-12-08T11:57:54Z
2019-12-08T10:00:28Z,42.805,6.029,13.2957,4.59958,2469.96,2019-12-08T12:00:58Z
2019-12-08T10:03:31Z,42.805,6.029,13.2958,4.59957,2469.937,2019-12-08T12:04:01Z
2019-12-08T10:06:35Z,42.805,6.029,13.2958,4.59956,2469.923,2019-12-08T12:07:04Z
2019-12-08T10:09:38Z,42.805,6.029,13.2955,4.59957,2469.923,2019-12-08T12:10:07Z
2019-12-08T10:12:41Z,42.805,6.029,13.2955,4.59956,2469.9,2019-12-08T12:13:11Z
2019-12-08T10:15:44Z,42.805,6.029,13.2957,4.59961,2469.9,2019-12-08T12:16:14Z
2019-12-08T10:18:47Z,42.805,6.029,13.2954,4.59957,2469.984,2019-12-08T12:19:17Z
2019-12-08T10:21:51Z,42.805,6.029,13.2960,4.59958,2469.984,2019-12-08T12:22:20Z
2019-12-08T10:24:54Z,42.805,6.029,13.2958,4.59957,2469.947,2019-12-08T12:25:23Z
2019-12-08T10:27:57Z,42.805,6.029,13.2958,4.59958,2469.96,2019-12-08T12:28:26Z
2019-12-08T10:31:00Z,42.805,6.029,13.2960,4.59958,2469.947,2019-12-08T12:31:30Z
2019-12-08T10:34:03Z,42.805,6.029,13.2960,4.59964,2469.947,2019-12-08T12:34:33Z
2019-12-08T10:37:07Z,42.805,6.029,13.2958,4.59958,2469.947,2019-12-08T12:37:36Z
2019-12-08T10:40:10Z,42.805,6.029,13.2960,4.59957,2469.947,2019-12-08T12:40:39Z
2019-12-08T10:43:13Z,42.805,6.029,13.2964,4.59956,2469.947,2019-12-08T12:43:43Z
2019-12-08T10:46:16Z,42.805,6.029,13.2957,4.59957,2469.947,2019-12-08T12:46:46Z
2019-12-08T10:49:19Z,42.805,6.029,13.2959,4.59958,2469.923,2019-12-08T12:49:49Z
2019-12-08T10:52:23Z,42.805,6.029,13.2957,4.59960,2469.923,2019-12-08T12:52:52Z
2019-12-08T10:55:26Z,42.805,6.029,13.2960,4.59958,2469.923,2019-12-08T12:55:55Z
2019-12-08T10:58:29Z,42.805,6.029,13.2958,4.59958,2469.96,2019-12-08T12:58:59Z
2019-12-08T11:01:32Z,42.805,6.029,13.2960,4.59957,2469.947,2019-12-08T13:02:02Z
2019-12-08T11:04:36Z,42.805,6.029,13.2957,4.59957,2469.923,2019-12-08T13:05:05Z
2019-12-08T11:07:39Z,42.805,6.029,13.2958,4.59958,2469.937,2019-12-08T13:08:08Z
2019-12-08T11:10:42Z,42.805,6.029,13.2958,4.59958,2469.923,2019-12-08T13:11:11Z
2019-12-08T11:13:45Z,42.805,6.029,13.2954,4.59956,2469.947,2019-12-08T13:14:15Z
2019-12-08T11:16:48Z,42.805,6.029,13.2957,4.59956,2469.923,2019-12-08T13:17:18Z
2019-12-08T11:19:51Z,42.805,6.029,13.2957,4.59957,2469.947,2019-12-08T13:20:21Z
2019-12-08T11:22:55Z,42.805,6.029,13.2958,4.59957,2469.923,2019-12-08T13:23:24Z
2019-12-08T11:25:58Z,42.805,6.029,13.2957,4.59957,2469.9,2019-12-08T13:26:27Z
2019-12-08T11:29:01Z,42.805,6.029,13.2958,4.59958,2469.9,2019-12-08T13:29:31Z
2019-12-08T11:32:04Z,42.805,6.029,13.2964,4.59956,2469.9,2019-12-08T13:32:34Z
2019-12-08T11:35:07Z,42.805,6.029,13.2958,4.59958,2469.9,2019-12-08T13:35:37Z
2019-12-08T11:38:11Z,42.805,6.029,13.2959,4.59957,2469.923,2019-12-08T13:38:40Z
2019-12-08T11:41:14Z,42.805,6.029,13.2957,4.59957,2469.937,2019-12-08T13:41:43Z
2019-12-08T11:44:17Z,42.805,6.029,13.2958,4.59958,2469.914,2019-12-08T13:44:46Z
2019-12-08T11:47:20Z,42.805,6.029,13.2958,4.59961,2469.923,2019-12-08T13:47:50Z
2019-12-08T11:50:23Z,42.805,6.029,13.2958,4.59958,2469.947,2019-12-08T13:50:53Z
2019-12-08T11:53:26Z,42.805,6.029,13.2959,4.59958,2469.937,2019-12-08T13:53:56Z
2019-12-08T11:56:30Z,42.805,6.029,13.2958,4.59958,2469.9,2019-12-08T13:56:59Z
2019-12-08T11:59:33Z,42.805,6.029,13.2958,4.59955,2469.914,2019-12-08T14:00:02Z
2019-12-08T12:02:36Z,42.805,6.029,13.2957,4.59960,2469.923,2019-12-08T14:03:06Z
2019-12-08T12:05:39Z,42.805,6.029,13.2962,4.59956,2469.923,2019-12-08T14:06:09Z
2019-12-08T12:08:42Z,42.805,6.029,13.2959,4.59956,2469.937,2019-12-08T14:09:12Z
2019-12-08T12:11:46Z,42.805,6.029,13.2961,4.59957,2469.923,2019-12-08T14:12:15Z
2019-12-08T12:14:49Z,42.805,6.029,13.2959,4.59956,2469.947,2019-12-08T14:15:18Z
2019-12-08T12:17:52Z,42.805,6.029,13.2961,4.59956,2469.914,2019-12-08T14:18:21Z
2019-12-08T12:20:55Z,42.805,6.029,13.2955,4.59957,2469.923,2019-12-08T14:21:25Z
2019-12-08T12:23:58Z,42.805,6.029,13.2959,4.59956,2469.923,2019-12-08T14:24:28Z
2019-12-08T12:27:01Z,42.805,6.029,13.2957,4.59956,2469.923,2019-12-08T14:27:31Z
2019-12-08T12:30:05Z,42.805,6.029,13.2958,4.59957,2469.923,2019-12-08T14:30:34Z
2019-12-08T12:33:08Z,42.805,6.029,13.2957,4.59956,2469.9,2019-12-08T14:33:37Z
2019-12-08T12:36:11Z,42.805,6.029,13.2958,4.59957,2469.923,2019-12-08T14:36:41Z
2019-12-08T12:39:14Z,42.805,6.029,13.2960,4.59957,2469.9,2019-12-08T14:39:44Z
2019-12-08T12:42:17Z,42.805,6.029,13.2961,4.59958,2469.923,2019-12-08T14:42:47Z
2019-12-08T12:45:21Z,42.805,6.029,13.2961,4.59958,2469.923,2019-12-08T14:45:50Z
2019-12-08T12:48:24Z,42.805,6.029,13.2957,4.59958,2469.947,2019-12-08T14:48:53Z
2019-12-08T12:51:27Z,42.805,6.029,13.2961,4.59956,2469.923,2019-12-08T14:51:57Z
2019-12-08T12:54:30Z,42.805,6.029,13.2961,4.59958,2469.947,2019-12-08T14:55:00Z
2019-12-08T12:57:33Z,42.805,6.029,13.2961,4.59958,2469.923,2019-12-08T14:58:03Z
2019-12-08T13:00:37Z,42.805,6.029,13.2958,4.59956,2469.914,2019-12-08T15:01:06Z
2019-12-08T13:03:40Z,42.805,6.029,13.2958,4.59961,2469.937,2019-12-08T15:04:09Z
2019-12-08T13:06:43Z,42.805,6.029,13.2961,4.59956,2469.947,2019-12-08T15:07:12Z
2019-12-08T13:09:46Z,42.805,6.029,13.2957,4.59957,2469.947,2019-12-08T15:10:16Z
2019-12-08T13:12:49Z,42.805,6.029,13.2958,4.59958,2469.96,2019-12-08T15:13:19Z
2019-12-08T13:15:52Z,42.805,6.029,13.2957,4.59956,2469.947,2019-12-08T15:16:22Z
2019-12-08T13:18:56Z,42.805,6.029,13.2957,4.59956,2469.947,2019-12-08T15:19:25Z
2019-12-08T13:21:59Z,42.805,6.029,13.2954,4.59957,2469.96,2019-12-08T15:22:28Z
2019-12-08T13:25:02Z,42.805,6.029,13.2957,4.59956,2469.984,2019-12-08T15:25:32Z
2019-12-08T13:28:05Z,42.805,6.029,13.2958,4.59956,2469.947,2019-12-08T15:28:35Z
2019-12-08T13:31:08Z,42.805,6.029,13.2960,4.59956,2469.97,2019-12-08T15:31:38Z
2019-12-08T13:34:12Z,42.805,6.029,13.2959,4.59957,2469.947,2019-12-08T15:34:41Z
2019-12-08T13:37:15Z,42.805,6.029,13.2961,4.59958,2469.96,2019-12-08T15:37:44Z
2019-12-08T13:40:18Z,42.805,6.029,13.2958,4.59958,2470.007,2019-12-08T15:40:47Z
2019-12-08T13:43:21Z,42.805,6.029,13.2956,4.59956,2469.97,2019-12-08T15:43:51Z
2019-12-08T13:46:25Z,42.805,6.029,13.2958,4.59956,2469.993,2019-12-08T15:46:54Z
2019-12-08T13:49:28Z,42.805,6.029,13.2956,4.59957,2469.993,2019-12-08T15:49:57Z
2019-12-08T13:52:31Z,42.805,6.029,13.2958,4.59957,2470.007,2019-12-08T15:53:01Z
2019-12-08T13:55:34Z,42.805,6.029,13.2959,4.59961,2469.97,2019-12-08T15:56:04Z
2019-12-08T13:58:37Z,42.805,6.029,13.2961,4.59959,2469.984,2019-12-08T15:59:07Z
2019-12-08T14:01:41Z,42.805,6.029,13.2958,4.59957,2469.96,2019-12-08T16:02:10Z
2019-12-08T14:04:44Z,42.805,6.029,13.2959,4.59957,2469.937,2019-12-08T16:05:13Z
2019-12-08T14:07:47Z,42.805,6.029,13.2960,4.59957,2469.96,2019-12-08T16:08:17Z
2019-12-08T14:10:50Z,42.805,6.029,13.2960,4.59956,2469.97,2019-12-08T16:11:20Z
2019-12-08T14:13:53Z,42.805,6.029,13.2955,4.59957,2470.007,2019-12-08T16:14:23Z
2019-12-08T14:16:57Z,42.805,6.029,13.2957,4.59956,2470.007,2019-12-08T16:17:26Z
2019-12-08T14:20:00Z,42.805,6.029,13.2959,4.59956,2469.97,2019-12-08T16:20:29Z
2019-12-08T14:23:03Z,42.805,6.029,13.2956,4.59958,2469.993,2019-12-08T16:23:32Z
2019-12-08T14:26:06Z,42.805,6.029,13.2958,4.59957,2469.993,2019-12-08T16:26:36Z
2019-12-08T14:29:09Z,42.805,6.029,13.2961,4.59961,2470.017,2019-12-08T16:29:39Z
2019-12-08T14:32:12Z,42.805,6.029,13.2959,4.59957,2469.97,2019-12-08T16:32:42Z
2019-12-08T14:35:16Z,42.805,6.029,13.2958,4.59958,2469.97,2019-12-08T16:35:45Z
2019-12-08T14:38:19Z,42.805,6.029,13.2957,4.59957,2469.993,2019-12-08T16:38:48Z
2019-12-08T14:41:22Z,42.805,6.029,13.2960,4.59956,2470.007,2019-12-08T16:41:52Z
2019-12-08T14:44:25Z,42.805,6.029,13.2961,4.59956,2469.993,2019-12-08T16:44:55Z
2019-12-08T14:47:28Z,42.805,6.029,13.2956,4.59956,2469.993,2019-12-08T16:47:58Z
2019-12-08T14:50:32Z,42.805,6.029,13.2961,4.59957,2469.993,2019-12-08T16:51:01Z
2019-12-08T14:53:35Z,42.805,6.029,13.2959,4.59956,2470.017,2019-12-08T16:54:04Z
2019-12-08T14:56:38Z,42.805,6.029,13.2958,4.59959,2470.017,2019-12-08T16:57:08Z
2019-12-08T14:59:41Z,42.805,6.029,13.2957,4.59956,2470.03,2019-12-08T17:00:11Z
2019-12-08T15:02:45Z,42.805,6.029,13.2957,4.59956,2470.017,2019-12-08T17:03:14Z